Location: Melbourne
(37.8666°S, 145.1333°E)
Time: 16:00:55
(UTC+11:00)

Hubble Space Telescope - Visible Passes

Search period start: 24 January 2017 00:00
Search period end: 03 February 2017 00:00
Orbit: 538 x 542 km, 28.5° (Epoch: 22 January)

Date Brightness Start Highest point End Pass type
(mag) Time Alt. Az. Time Alt. Az. Time Alt. Az.
24 Jan 2.9 05:45:50 10° NW 05:47:13 11° NNW 05:48:36 10° N visible
29 Jan 3.0 22:02:27 10° NNW 22:02:56 11° N 22:02:56 11° N visible
30 Jan 2.6 21:51:57 10° NNW 21:54:03 15° N 21:54:03 15° N visible
31 Jan 2.4 21:41:36 10° NNW 21:44:23 17° NNE 21:45:00 17° NNE visible
01 Feb 2.4 21:31:21 10° NW 21:34:20 19° N 21:35:48 16° NE visible
02 Feb 2.3 21:21:10 10° NW 21:24:18 20° N 21:26:29 14° NE visible
02 Feb 3.5 23:01:47 10° NW 23:01:52 10° NW 23:01:52 10° NW visible
